Holly Ridge, NC (28445)

8:56 PM EDT on June 23, 2017 (GMT -0400)
Morris Landing Area | | Change Station
Active Advisory: Beach Hazard Statement

Elev 10 ft 34.47 °N, 77.51 °W | Updated 4 seconds ago

Clear
Clear
79.3 °F
Feels Like 83 °F
N
1.0
Wind Variable Wind from East

Today
High -- | Low -- °F
--% Chance of Precip.
Yesterday
High -- | Low -- °F
Precip. -- in
Pressure 29.93 in
Visibility 10.0 miles
Clouds Clear
Heat Index 83 °F
Dew Point 73 °F
Humidity 81%
Rainfall 0.00 in
Snow Depth Not available.
5:58 AM 8:26 PM
Waning Crescent, 0% visible
METAR KNCA 232356Z AUTO 19011KT 10SM CLR 28/24 A2992 RMK AO2 SLP133 T02780239 10322 20278 55003
Pressure 29.93 in
Visibility 10.0 miles
Clouds Clear
Heat Index 83 °F
Dew Point 73 °F
Humidity 81%
Rainfall 0.00 in
Snow Depth Not available.
5:58 AM 8:26 PM
Waning Crescent, 0% visible
METAR KNCA 232356Z AUTO 19011KT 10SM CLR 28/24 A2992 RMK AO2 SLP133 T02780239 10322 20278 55003

Get Your Daily Forecast Email!

Thanks for signing up!

Be on the lookout for a verification email in your inbox.

You'll start receiving severe weather alerts in your inbox..

×

10-Day Weather Forecast

Almanac

Astronomy

Jun. 23, 2017 Rise Set
Actual Time
Civil Twilight
Nautical Twilight
Astronomical Twilight
Moon
Length of Visible Light
Length of Day
Tomorrow will be .
, % of the Moon is Illuminated

Today's Extremes

State Highs State Lows

Community

WunderPhotos

Category 6

Welcome to Category 6. This is the collective home for Weather Underground's featured writeups by Dr. Jeff Masters (right), Bob Henson (left), Chris Burt, and other regular contributors.

Nearby

Air Quality

  Air Quality AQ Index Pollutant
Not available.

Snow Depth

Station Depth Elevation

Earthquake Activity

City Distance Mag. Time & Date
Minimum magnitude displayed is 2.5.

Coastal Water Temperatures

Place Temperature

Stations

Nearby Weather Stations

Station Location Temp. Windchill Dew Point Humidity Wind Precip. Elev Updated Type
                   

Watches & Warnings

Beach Hazard Statement
Issued: 8:22 PM EDT Jun. 23, 2017 – National Weather Service

... Beach hazards statement in effect through Saturday evening...

The National Weather Service in Newport/Morehead City has issued
a beach hazards statement, which is in effect through Saturday
evening.

* Hazards... high threat of rip currents.

* Location... from Surf City to Cape Lookout.

* Timing and tides... the most likely time for strong rip currents
to occur is a couple hours either side of low tide, which will
occur around 215 PM Saturday.

Precautionary/preparedness actions...

If caught in a rip current remain calm. Don't fight the current.
Swim in a direction following the shoreline. When out of the
current, swim back to shore. If tired, float or tread water until
out of the rip current. If unable to escape, face the shore and
call or wave for help.